Regional Weather Roundup
Issued by NWS

Home | Current Version | Previous Version | Text Only | Print | Product List | Glossary Off
Versions: 1 2 3 4 5 6 7 8 9 10 11 12 13 14 15 16 17 18 19 20 21 22 23 24 25 26 27

000
ASUS45 KCYS 230210
RWRWY

WYOMING REGIONAL WEATHER ROUNDUP
NATIONAL WEATHER SERVICE CHEYENNE WY
800 PM MDT FRI JUL 22 2016

NOTE:  "FAIR" INDICATES FEW OR NO CLOUDS BELOW 12,000 FEET
WITH NO SIGNIFICANT WEATHER AND/OR OBSTRUCTIONS TO VISIBILITY.

WYZ001-230300-
YELLOWSTONE NATIONAL PARK

CITY           SKY/WX    TMP DP  RH WIND       PRES   REMARKS
LK YELLOWSTONE   N/A     72  19  13 VRB6G22   30.29S
W YELLOWSTONE  NOT AVBL

$$
WYZ002>013-054>058-071-098>099-230300-
NORTHERN WYOMING

CITY           SKY/WX    TMP DP  RH WIND       PRES   REMARKS
JACKSON        NOT AVBL
CODY           FAIR      88  41  19 S15       29.99S
GREYBULL       FAIR      93  32  11 SE10G36   29.89F HAZE
WORLAND        FAIR      85  43  22 SW9       29.95S
SHERIDAN       FAIR      83  47  28 S10       29.93R
BUFFALO        FAIR      83  43  24 N22G28    29.99R
GILLETTE       FAIR      85  51  31 SE16G26   29.95R
HULETT         FAIR      82  46  28 W3        29.95R
NEWCASTLE      FAIR      82  45  26 SE18G28   29.99S

$$
WYZ014>020-022>026-101>103-230300-
CENTRAL WYOMING

CITY           SKY/WX    TMP DP  RH WIND       PRES   REMARKS
BIG PINEY      FAIR      75  45  34 E16       30.24R
PINEDALE       FAIR      70  52  52 NE6       30.27S
DUBOIS         MOCLDY    72  41  33 W9        30.23R
LANDER         FAIR      80  47  31 VRB5      30.12R
RIVERTON       FAIR      81  42  25 W16       30.11R
CASPER         FAIR      84  43  23 W24G36    30.08R
DOUGLAS          N/A    N/A N/A N/A MISG      30.01S

$$
WYZ021-027>030-104>119-230300-
SOUTHERN WYOMING

CITY           SKY/WX    TMP DP  RH WIND       PRES   REMARKS
EVANSTON       FAIR      82  31  15 W14       30.26R
KEMMERER         N/A     79  27  14 W15G23    30.26S
FORT BRIDGER   FAIR      85  31  14 NW17      30.27R
ROCK SPRINGS   FAIR      80  38  22 S10       30.23S
DIXON          LGT RAIN  74  43  32 S9G32     30.30R
RAWLINS        FAIR      79  40  24 W15       30.24R
SARATOGA       FAIR      79  37  22 MISG      30.27R
LARAMIE        MOCLDY    79  50  36 SW7       30.24S
CHEYENNE       FAIR      82  46  28 SW10      30.14F
TORRINGTON     FAIR      77  59  53 E25G36    29.99R
PINE BLUFFS    FAIR      82  48  30 CALM      30.07S

$$




USA.gov is the U.S. government's official web portal to all federal, state and local government web resources and services.